www.pogodaiklimat.ru

Погода и климат >> Архив погоды >> Вануату >> Анейтьюм


ПОГОДА в Анейтьюме

  • Прогноз погоды в Анейтьюме
  • Монитор погоды в Анейтьюме

АРХИВ ПОГОДЫ в Анейтьюме

Время (UTC), дата Ветер
(напр.,м/с)
 
Видим.   Явления Облачность Т
(С)
Тd
(С)
f
(%)
Тe
(С)
Тes
(С)
Комфортность P
(гПа)
Po
(гПа)
Тmin
(С)
Tmax
(С)
R
(мм)
R24
(мм)
S
(см)
03 13.09 ЮВ 3 20 км {ливн. осадки} 10/5 600 м
[Cu med, cong As op]
+23.2 +14.9 60 +27 +28 душно 1015.2 1014.4
00 14.09 ЮВ 2 20 км {ливн. осадки} 9/9 540 м
[Cu Sc]
+24.6 +20.0 76 +30 +32 очень
душно
1016.7 1015.9 2
03 14.09 ЮВ 2 20 км 9/6 540 м
[Cb cap Ac und]
+25.6 +19.1 67 +31 +33 очень
душно
1014.8 1014.0
06 14.09 ЮВ 2 20 км 9/6 540 м
[Cu Sc Ac und]
+22.6 +19.2 81 +29 +29 очень
душно
1014.9 1014.1
09 14.09 ЮВ 3 20 км слаб. ливневой дождь 10/10 540 м
[Cu Sc]
+22.2 +19.6 85 +28 +28 душно 1016.6 1015.8
12 14.09 ЮВ 2 20 км в посл. час дождь {ливн. осадки} 9/9 540 м
[Cu Sc]
+20.0 +18.2 89 +24 +24 комфорт 1016.8 1016.0 +25.6
15 14.09 ЮВ 2 20 км 9/9 600 м
[Cu Sc]
+21.0 +16.8 77 +25 +25 комфорт 1015.5 1014.7
18 14.09 ЮВ 3 20 км в посл. час дождь 8/8 600 м
[Cu Sc]
+21.0 +18.0 83 +26 +26 душно 1016.5 1015.7 2
21 14.09 Ю 3 20 км {ливн. осадки} 6/6 750 м
[Cu med, cong]
+23.0 +18.4 75 +29 +31 очень
душно
1018.4 1017.6
00 15.09 Ю 3 20 км {ливн. осадки} 5/5 750 м
[Cu med, cong]
+25.1 +18.5 67 +30 +38 душно 1018.2 1017.4 2
03 15.09 ЮВ 3 20 км 4/4 750 м
[Cu med, cong]
+25.2 +16.9 60 +29 +35 душно 1016.4 1015.6
06 15.09 ЮВ 3 20 км 4/4 750 м
[Cu med, cong]
+23.8 +16.1 62 +27 +27 жарко 1017.7 1016.9
09 15.09 ЮЗ 3 20 км 4/4 750 м
[Cu med, cong]
+22.0 +15.4 66 +26 +26 душно 1019.1 1018.3
12 15.09 З 5 20 км 4/4 750 м
[Cu med, cong]
+21.0 +14.2 65 +24 +24 комфорт 1019.7 1018.9 +26.2
15 15.09 ЮВ 4 20 км 4/4 750 м
[Cu med, cong]
+20.8 +14.3 66 +24 +24 комфорт 1019.0 1018.2
18 15.09 ЮВ 5 20 км 3/3 750 м
[Cu med, cong]
+20.6 +13.3 63 +23 +23 комфорт 1019.7 1018.9
21 15.09 ЮВ 3 20 км 4/4 750 м
[Cu med, cong]
+22.0 +13.0 57 +25 +28 комфорт 1021.0 1020.2
00 16.09 ЮВ 3 20 км 4/4 750 м
[Cu med, cong]
+24.8 +14.7 53 +27 +37 жарко 1020.8 1020.0
03 16.09 ЮВ 3 20 км 9/5 750 м
[Cu med, cong Ci fib]
+25.0 +15.1 54 +28 +32 жарко 1018.5 1017.7
06 16.09 ЮВ 4 20 км 8/8 600 м
[Cu Sc]
+23.0 +16.5 67 +28 +28 душно 1018.0 1017.2
09 16.09 ЮВ 3 20 км 4/4 750 м
[Cu med, cong]
+21.0 +14.8 68 +25 +25 комфорт 1020.1 1019.3
12 16.09 ЮВ 8 20 км 10/10 600 м
[Cu Sc]
+22.2 +16.0 68 +26 +26 душно 1019.8 1019.0 +25.8
15 16.09 ЮВ 6 20 км 10/10 600 м
[Cu Sc]
+22.0 +15.4 66 +26 +26 душно 1018.7 1017.9
18 16.09 ЮВ 5 20 км 10/10 600 м
[Cu Sc]
+21.4 +15.8 70 +25 +25 комфорт 1018.7 1017.9
21 16.09 ЮВ 5 20 км 9/9 600 м
[Cu Sc]
+22.2 +15.2 65
00 17.09 ЮВ 7 20 км 5/5 750 м
[Cu med, cong]
+25.1 +15.1 54 +28 +31 жарко 1019.4 1018.6
03 17.09 ЮВ 5 20 км 9/9 600 м
[Cu Sc]
+22.2 +15.2 65
06 17.09 ЮВ 5 20 км 8/8 750 м
[Cu med, cong]
+24.0 +16.0 61 +27 +27 жарко 1018.4 1017.6
09 17.09 ЮВ 5 20 км 5/5 750 м
[Cu med, cong]
+22.0 +16.5 71 +26 +26 душно 1019.6 1018.8
12 17.09 ЮВ 3 20 км 8/8 600 м
[Cu Sc]
+22.1 +15.2 65 +26 +26 душно 1019.7 1018.9 +26.0
15 17.09 штиль 0 20 км 1/1 750 м
[Cu hum]
+17.8 +16.1 90 +18 +18 1018.6 1017.8
18 17.09 штиль 0 20 км 5/5 750 м
[Cu med, cong]
+21.4 +17.5 78 +25 +25 комфорт 1018.6 1017.8
21 17.09 ЮВ 2 20 км 5/5 750 м
[Cu med, cong]
+23.0 +18.6 76 +29 +32 очень
душно
1019.3 1018.5
00 18.09 ЮВ 2 20 км слаб. ливневой дождь 9/9 600 м
[Cu Sc]
+24.0 +19.5 76 +29 +31 душно 1018.4 1017.6 0.0
03 18.09 ЮВ 3 20 км в посл. час дождь 10/10 600 м
[Cu Sc]
+24.4 +19.5 74 +30 +30 очень
душно
1017.1 1016.3
06 18.09 С 4 н/о н/о +23.9 +18.9 74 +29 +29 душно 1017.9 1017.1
09 18.09 ЮВ 50 20 км 4/4 750 м
[Cu med, cong]
+22.4 +18.6 79 1019.4
12 18.09 ЮВ 2 20 км 4/4 750 м
[Cu med, cong]
+19.0 +11.8 63 +21 +21 комфорт 1018.8 1018.0 +24.8
15 18.09 ЮВ 3 20 км 5/5 600 м
[Cu med, cong]
+19.5 +17.4 88 +22 +22 комфорт 1018.0 1017.2
18 18.09 ЮВ 2 20 км 4/4 600 м
[Cu med, cong]
+19.9 +17.3 85 +23 +23 комфорт 1018.0 1017.2
21 18.09 ЮВ 3 20 км 4/4 750 м
[Cu med, cong]
+24.2 +19.6 76 +29 +33 душно 1019.1 1018.3
00 19.09 ЮВ 4 20 км 5/5 750 м
[Cu med, cong]
+27.0 +19.3 63 +33 +40 очень
душно
1018.5 1017.7 2
03 19.09 ЮВ 3 20 км в посл. час дождь 6/6 600 м
[Cu med, cong]
+25.0 +18.8 68 +30 +34 душно 1016.4 1015.6
06 19.09 ЮВ 3 20 км {ливн. осадки} 9/9 600 м
[Cu Sc]
+23.6 +19.6 78 +29 +29 душно 1016.8 1016.0 1
09 19.09 ЮВ 4 20 км в посл. час ливневой дождь 5/5 600 м
[Cu med, cong]
+23.2 +19.2 78 +30 +30 очень
душно
1018.3 1017.5
12 19.09 ЮВ 6 20 км {ливн. осадки} 4/4 600 м
[Cu med, cong]
+23.0 +18.8 77 +29 +29 очень
душно
1018.3 1017.5 +24.2 0.2
15 19.09 ЮВ 6 20 км слаб. ливневой дождь 10/10 540 м
[Cu Sc]
+22.4 +14.2 60 +26 +26 жарко 1017.3 1016.5
18 19.09 ЮВ 4 20 км {ливн. осадки} 4/4 750 м
[Cu med, cong]
+21.6 +17.4 77 +26 +26 душно 1018.2 1017.4 0.0
21 19.09 ЮВ 5 20 км осадки на расстоянии 5/5 600 м
[Cu med, cong]
+23.8 +18.3 71 +28 +30 душно 1019.2 1018.4
00 20.09 ЮВ 4 20 км в посл. час ливневой дождь 4/4 750 м
[Cu med, cong]
+25.6 +18.1 63 +30 +38 душно 1018.7 1017.9 1

 

Местоположение метеостанции Анейтьюм (Вануату): широта -20.23 долгота 169.76 высота над уровнем моря 7 м.

В архиве по умолчанию представлена погода в Анейтьюме за последнюю неделю. Архивные данные за месяц целиком и за предыдущие месяцы, начиная с января 2011 года, Вы можете получить, выбрав интересующий диапазон дат из раскрывающегося списка и нажав кнопку "Ввод!".


*Определитесь, кто Вы:
робот инопланетянин человек

Внимание! Время в таблицах - всемирное. Для получения местного времени необходимо прибавить поправку, которая равна 11 ч.

Смотрите также архив погоды в соседних городах и на ближайших метеорологических станциях:

Погода в Уайт Грасс (Вануату) (104 км)
Погода на Эроманге (Вануату) (189 км)
Погода в Ла Рош (Новая Каледония) (227 км)
Погода на Острове Лифу (Новая Каледония) (270 км)
Погода в Порт-Виле (Вануату) (321 км)
Погода на Острове Увеа (Новая Каледония) (335 км)
Погода на Острове Пен (Новая Каледония) (356 км)
Погода в Нумеа (Новая Каледония) (411 км)
Погода в Ла Тонтута (Новая Каледония) (418 км)
Погода в Пуандимье (Новая Каледония) (470 км)

Пояснения к столбцам:

Ветер - указаны скорость ветра в м/с - средняя за 10 мин, порывы в срок и между сроками (в фигурных скобках) и направление, откуда дует ветер: С - северный, СВ - северо-восточный, В - восточный, ЮВ - юго-восточный, Ю - южный, ЮЗ - юго-западный, З - западный, СЗ - северо-западный.
Видимость - горизонтальная дальность видимости в метрах или километрах. При видимости от 1 до 10 км при отсутствии осадков обычно наблюдается дымка, при ухудшении видимости до 1 км и менее - туман. В сухую погоду видимость может ухудшаться дымом, пылью или мглою.
Явления - указаны атмосферные явления, наблюдавшиеся в срок или в последний час перед сроком; фигурными скобками обозначены явления, наблюдавшиеся между сроками (за 1-3 часа до срока); квадратными скобками обозначены град или гололедные отложения с указанием их диаметра в мм.
Облачность - указаны через наклонную черту общая и нижняя облачность в баллах и высота нижней границы облаков в метрах; квадратными скобками обозначены формы облаков: Ci - перистые, Cs - перисто-слоистые, Cc - перисто-кучевые, Ac - высококучевые, As - высокослоистые, Sc - слоисто-кучевые, Ns - слоисто-дождевые, Cu - кучевые, Cb - кучево-дождевые. Подробнее классификацию облаков см. в Атласе облаков (PDF).
T - Температура воздуха - температура, измеренная на высоте 2 м над землей.
Td - Температура точки росы - температура, при понижении до которой содержащийся в воздухе водяной пар достигнет насыщения.
f - Относительная влажность воздуха - влажноcть воздуха, измеренная на высоте 2 м над землей.
Te - Эффективная температура - температура, которую ощущает одетый по сезону человек в тени. Характеристика душности погоды. При расчете учитывается влияние влажности воздуха и скорости ветра на теплоощущения человека.
Tes - Эффективная температура на солнце - температура, которую ощущает человек, с поправкой на солнечный нагрев. Характеристика знойности погоды. Зависит от высоты солнца над горизонтом, облачности и скорости ветра. Ночью, в пасмурную погоду, а также при ветре 12 м/с и более поправка равна нулю.
P - Атмосферное давление - приведенное к уровню моря атмосферное давление.
Po - Атмосферное давление - измеренное на уровне метеостанции атмосферное давление.
Tmin - Минимальная температура - минимум температуры воздуха на высоте 2 м над землей.
Tmax - Максимальная температура - максимум температуры воздуха на высоте 2 м над землей.
R - Количество осадков - Количество выпавших осадков за период времени, мм. При наведении курсора мыши на число - период времени, за который выпало указанное количество осадков.
R24 - Количество осадков - Количество выпавших осадков за 24 часа, мм.
S - Снежный покров - Высота снежного покрова, см. При наведении курсора мыши на число - состояние снежного покрова и степень покрытия местности в баллах.